Theta_e
302 299 297 296 298 299 300 299 297 295 297 297 297 297 294 294 296 296 295 296 295 296 297 299 299 299 300 301 303 304 304 301 300 300 302 303 304 304 305 305 306 306 307 312 308 307 307 307 307 307 307 309 310 311 312 312 313 313 312 313 313 313 312 312 310 309 308 308 308 309 311 312 308 307 308 309 308 308 309 309 312 315 315 315 312 310
301 298 297 300 298 299 298 296 296 295 296 296 296 295 295 295 294 296 296 295 297 295 297 296 296 298 299 301 303 304 302 301 302 302 303 303 304 305 306 306 307 307 309 310 307 305 306 305 306 306 306 307 308 309 311 311 312 312 312 312 313 312 310 310 310 310 311 311 310 310 311 307 304 304 306 307 305 304 304 306 307 310 313 313 311 308
298 295 298 298 296 296 295 296 297 297 296 296 296 296 294 296 297 295 293 295 296 295 295 297 295 297 300 301 303 303 302 303 304 304 304 304 305 306 306 307 307 307 307 308 307 307 304 306 305 305 306 307 308 310 310 312 312 312 311 312 313 311 309 310 311 310 310 311 312 312 308 307 304 303 304 306 303 303 303 304 305 306 308 309 308 308
293 297 299 296 297 296 294 294 296 296 297 296 295 293 293 296 293 292 295 294 294 295 296 296 294 296 300 302 302 304 303 304 305 305 305 305 304 305 306 307 307 307 307 307 307 306 304 304 304 304 305 306 308 309 310 311 311 311 311 311 312 310 310 309 309 309 310 307 305 304 304 303 305 303 298 299 298 298 299 300 302 303 304 305 306 306
295 296 293 295 297 298 295 294 295 295 294 297 297 296 295 294 295 293 293 294 293 295 293 294 294 296 300 300 301 304 302 300 301 302 302 303 305 305 306 306 306 305 306 306 307 307 305 303 303 304 305 306 307 308 309 310 310 311 311 311 311 310 310 309 308 308 303 301 300 299 299 301 299 299 298 298 297 297 298 297 298 300 301 302 303 303
296 295 296 295 295 296 296 293 296 297 294 295 297 297 297 297 295 293 295 295 295 295 294 294 290 293 297 297 297 301 302 301 302 301 303 305 305 305 304 304 306 307 306 306 306 306 306 304 304 304 305 305 307 308 309 311 311 311 311 311 311 310 309 308 308 305 303 301 299 298 300 301 300 299 298 299 299 297 296 298 298 297 298 299 300 301
296 293 298 296 295 296 296 296 297 298 295 293 294 297 298 296 295 295 294 294 291 289 294 293 289 287 296 296 298 301 300 301 303 303 303 304 305 305 306 306 306 307 307 306 305 305 304 305 304 304 304 305 306 308 310 310 310 311 311 311 311 309 308 308 306 303 302 302 301 302 304 304 302 301 302 305 304 302 301 300 297 296 295 296 297 297
295 293 294 296 296 296 295 293 296 296 295 292 294 293 295 295 294 295 294 295 293 295 296 292 294 288 289 295 300 301 299 299 300 302 304 304 305 305 305 306 307 307 307 307 306 306 305 304 304 303 304 304 305 308 309 309 310 310 310 311 310 309 308 307 304 302 303 303 302 303 306 306 305 305 305 305 306 304 300 298 296 294 293 293 294 295
296 294 294 294 295 295 295 297 299 298 296 294 292 295 295 296 297 295 295 294 293 290 290 291 295 288 289 295 296 295 296 298 299 301 304 305 306 305 306 306 307 307 307 306 306 306 305 304 304 303 304 304 306 307 308 308 309 309 310 310 309 308 307 306 303 302 303 304 304 305 307 306 306 308 307 305 301 299 297 295 293 293 292 292 292 293
293 297 297 299 296 294 296 291 294 298 295 292 293 295 294 295 295 296 294 294 292 290 287 290 293 287 288 296 296 296 295 296 298 302 303 305 305 306 306 306 306 304 304 304 303 304 304 304 303 304 304 304 305 307 309 309 309 309 309 309 308 307 306 303 302 301 302 303 304 304 306 306 305 302 299 300 298 296 295 294 293 293 291 291 290 291
293 295 296 297 296 298 293 292 292 296 295 295 297 297 296 295 295 294 295 293 291 285 289 291 293 291 285 294 295 294 297 299 301 302 303 303 305 306 304 305 306 304 304 304 303 302 301 301 301 302 301 302 304 306 308 308 308 308 308 308 307 307 305 303 302 302 301 303 304 305 305 306 304 300 299 298 296 295 293 293 292 291 292 291 290 290
295 295 296 297 294 294 297 294 294 293 295 298 297 296 295 293 293 293 291 291 286 284 289 291 293 293 284 291 296 299 297 297 299 300 302 303 304 308 305 304 303 303 303 303 302 303 301 299 299 300 300 301 303 305 306 307 307 307 308 308 307 307 305 302 301 301 301 301 303 303 305 305 304 299 298 299 297 294 293 293 293 293 293 291 290 289
292 294 296 295 296 296 298 296 294 295 295 297 297 295 288 286 286 284 287 283 284 284 287 288 289 288 288 292 297 298 300 301 301 301 302 303 304 306 305 305 304 304 302 303 304 303 302 301 301 299 300 301 302 303 305 306 306 306 307 307 306 306 305 302 301 301 301 301 301 301 303 304 303 299 298 298 296 294 294 294 294 292 291 290 289 288
292 295 293 296 295 296 300 293 291 290 294 295 294 292 287 283 282 279 284 282 282 285 285 287 291 286 293 295 299 298 301 303 303 303 304 303 303 304 305 306 304 305 303 303 303 303 303 303 302 301 301 301 302 303 304 305 305 306 306 306 306 306 306 303 301 299 300 301 302 302 302 301 299 296 297 297 295 294 295 295 295 294 293 291 291 290
285 285 291 293 292 299 297 297 297 295 294 294 300 295 290 288 284 279 282 280 283 284 284 286 286 286 287 293 297 298 301 301 300 300 303 303 303 304 303 303 303 303 303 304 303 303 303 302 301 301 301 301 302 303 304 305 305 305 305 305 305 305 305 303 302 301 300 302 302 302 302 299 297 295 295 295 296 295 295 296 295 294 294 293 293 291
289 290 293 298 296 298 296 299 301 298 295 296 296 296 290 288 293 284 286 285 283 284 283 282 285 292 293 298 299 301 300 299 299 299 298 299 301 302 302 303 303 303 304 305 303 303 301 301 300 300 300 301 302 303 304 305 305 305 305 305 305 305 305 304 301 301 302 302 301 300 299 299 297 295 295 295 295 295 297 296 293 293 292 293 292 292
287 287 291 295 295 297 297 297 298 299 287 293 293 289 292 296 294 285 282 282 281 283 282 289 287 291 296 296 298 299 300 301 301 300 300 301 302 301 301 304 303 303 304 304 304 304 303 300 299 299 300 300 302 303 304 304 305 305 305 305 304 304 305 304 301 300 301 302 301 299 299 299 297 296 295 294 295 295 295 293 292 293 293 293 292 291
288 289 289 292 291 294 292 294 299 296 297 293 288 293 294 297 297 290 284 283 283 281 283 285 284 287 289 286 296 296 297 299 300 301 302 303 303 302 304 305 304 304 303 304 304 302 301 300 299 299 299 300 301 302 304 304 305 305 305 305 304 304 303 303 302 300 300 300 299 299 298 298 297 296 295 295 295 294 292 292 291 291 291 291 291 290
294 287 290 288 290 294 294 297 296 297 296 295 293 302 292 286 285 290 287 279 280 279 282 286 287 287 290 290 295 295 295 297 299 301 301 301 303 304 304 305 305 304 303 303 302 301 299 299 299 299 299 300 301 302 304 305 305 305 305 305 304 304 304 304 303 301 300 300 299 298 297 297 296 296 295 295 293 292 291 290 290 290 290 289 289 288
295 287 288 289 291 293 295 295 288 292 296 296 296 293 296 292 290 287 287 287 286 282 280 283 285 284 294 293 296 296 297 299 300 301 301 302 303 304 305 307 306 305 305 307 305 303 301 300 299 299 298 298 299 301 303 304 304 304 304 304 303 304 304 304 303 301 299 298 297 298 297 296 296 296 295 293 291 290 290 290 289 290 289 289 288 288
291 292 285 290 292 293 288 292 291 293 289 290 292 291 291 290 293 292 290 286 285 283 282 282 281 287 294 298 297 297 299 300 300 302 305 304 304 305 306 306 306 304 306 306 305 303 301 299 298 298 298 298 299 300 301 303 303 303 303 303 303 302 302 302 302 301 299 298 297 297 295 295 295 295 294 291 291 290 290 290 289 290 290 288 287 287
289 289 286 289 288 288 292 297 296 297 296 293 292 290 292 288 287 283 282 289 284 285 282 281 281 288 297 295 299 299 301 302 303 303 304 305 305 305 304 302 301 303 305 304 303 301 300 298 297 296 296 297 297 298 299 301 302 302 302 302 302 302 302 302 302 299 298 296 296 296 295 295 295 294 292 290 289 289 289 288 288 288 287 286 287 286
296 294 290 287 289 291 293 293 291 291 295 296 295 294 296 294 292 288 282 284 284 285 284 285 283 287 299 298 299 300 301 300 301 302 302 305 306 304 303 301 300 301 303 302 301 300 298 298 298 296 296 296 296 297 298 299 300 301 302 302 302 301 301 302 301 299 297 296 295 294 295 294 293 291 290 289 289 288 287 287 286 286 286 285 286 286
294 289 286 288 293 294 293 292 292 292 294 293 294 293 292 291 292 291 289 288 287 286 284 285 281 287 297 295 297 297 297 295 296 296 300 301 301 302 303 302 301 300 300 300 299 297 296 296 296 295 295 296 296 296 297 298 299 300 301 301 301 300 301 301 301 299 297 296 294 294 293 293 292 291 289 288 288 288 287 287 287 287 286 286 285 284
289 288 289 285 285 287 289 293 292 293 293 291 292 294 294 295 295 291 287 289 286 287 287 286 281 287 298 293 294 294 295 295 298 298 297 299 302 303 303 302 300 300 301 299 299 298 296 294 294 295 296 296 296 296 297 297 298 299 299 300 300 300 300 300 300 299 297 296 294 292 292 292 291 290 288 287 286 286 286 286 286 286 284 284 283 284
291 290 288 282 280 279 279 280 283 286 288 291 292 293 294 293 293 288 286 287 284 288 288 285 286 292 297 297 297 296 296 297 298 299 297 298 301 302 303 303 301 300 301 300 300 298 296 296 296 295 295 296 296 296 296 297 297 297 298 299 299 299 299 299 299 297 296 294 293 292 291 291 290 289 288 287 287 286 285 285 285 285 284 283 283 283
288 290 290 289 287 285 288 290 293 295 291 287 289 290 292 294 294 292 291 287 284 287 287 289 290 291 293 296 297 298 294 296 299 300 299 299 298 299 299 300 300 300 300 299 299 300 297 295 295 296 295 296 295 296 296 296 296 296 297 297 298 298 298 298 297 296 295 293 293 292 290 289 289 289 288 288 287 285 285 285 285 284 284 283 283 283
287 288 291 292 292 292 294 294 294 295 290 292 290 290 293 291 290 289 288 286 292 288 284 291 293 289 291 295 297 298 297 298 299 300 301 300 301 302 302 300 296 296 297 296 296 295 296 298 297 296 295 295 295 295 295 296 296 296 296 296 297 297 298 297 295 294 294 293 292 293 290 289 288 288 288 288 287 284 284 284 284 284 284 283 283 283
288 287 291 292 289 292 294 294 295 294 295 294 293 293 291 292 290 286 288 292 293 288 286 292 294 291 293 296 298 299 300 299 300 301 302 301 300 299 299 298 299 299 299 296 296 297 297 297 298 297 296 295 294 294 294 294 295 295 296 296 296 296 296 296 294 294 293 292 292 292 291 290 288 287 287 286 285 284 284 284 283 283 283 283 283 282
290 287 290 291 289 291 291 292 293 292 291 291 292 294 294 292 291 291 291 293 293 291 293 294 294 294 296 298 299 301 302 302 302 303 300 299 300 302 302 302 302 303 301 300 300 300 299 299 299 297 296 295 294 294 293 294 294 294 294 295 295 295 295 295 293 293 292 292 292 292 291 290 289 287 286 285 284 285 284 284 283 283 283 283 283 282
292 287 291 290 287 287 290 292 292 291 291 289 292 292 292 293 292 293 292 293 294 293 294 294 293 293 298 301 301 302 303 303 302 300 300 301 302 302 302 303 304 304 304 302 301 301 301 299 298 297 296 296 295 295 293 294 294 294 294 295 295 294 294 294 293 293 292 291 291 291 291 290 289 287 285 285 285 284 283 283 283 283 282 283 283 282
291 288 292 289 285 285 289 289 289 290 289 288 288 290 291 290 288 290 290 294 292 290 292 292 290 291 297 301 302 302 302 299 299 300 301 302 303 302 303 303 304 305 304 304 305 304 303 302 300 298 298 298 297 296 294 294 294 293 293 294 294 294 293 293 292 292 292 291 291 291 290 289 288 286 285 285 284 284 284 283 283 283 282 282 282 282
290 289 288 288 284 285 289 290 288 288 286 283 284 289 292 292 293 294 295 295 294 295 291 288 290 296 299 300 299 300 301 300 300 300 301 302 303 303 303 304 304 305 305 306 306 306 306 304 302 301 301 300 300 297 295 295 293 293 294 293 294 293 292 292 292 292 291 291 290 290 289 288 287 286 285 285 285 284 283 283 282 282 282 282 282 282
289 289 288 291 284 285 288 288 288 285 277 280 292 296 295 292 293 291 291 294 296 296 293 296 297 299 300 299 299 299 300 300 301 303 304 303 303 303 303 304 305 305 306 306 306 305 305 304 303 302 301 301 300 297 296 294 294 294 294 294 293 292 291 291 291 291 290 290 289 289 288 287 286 286 285 285 285 284 284 283 283 283 283 282 282 282
287 288 289 290 286 285 288 287 283 277 280 291 296 298 298 297 296 295 295 295 296 297 297 296 296 297 299 300 301 301 302 303 303 301 301 303 304 304 304 304 304 304 304 304 304 302 301 302 302 301 299 297 296 296 294 293 293 293 293 292 291 291 290 290 290 290 290 289 289 288 287 287 287 286 285 285 285 284 283 283 283 283 283 282 282 281
289 288 289 288 289 288 286 285 277 279 288 294 296 297 299 298 297 296 293 296 297 297 298 296 297 298 299 300 301 302 301 302 301 301 301 302 303 304 303 304 304 304 303 304 303 302 302 301 301 299 298 297 295 293 293 293 292 292 291 291 290 290 290 289 289 289 289 288 288 287 287 286 286 286 285 285 284 284 283 283 283 282 283 282 282 282
294 291 290 286 289 282 284 284 283 290 289 290 292 294 294 292 293 292 288 292 298 299 298 297 298 299 299 300 301 301 301 300 298 300 302 300 301 301 302 302 304 304 303 303 302 302 302 299 298 297 295 292 293 292 292 292 291 291 289 289 289 289 288 288 288 288 287 287 287 287 287 287 286 286 285 285 284 283 283 283 282 282 282 281 282 281
295 289 291 286 285 288 283 282 283 282 279 286 294 298 300 299 299 300 294 290 299 299 301 299 298 299 299 300 300 300 299 295 294 296 301 300 300 300 300 301 302 302 302 301 298 295 293 292 291 290 292 291 290 290 290 290 290 289 288 288 288 288 287 287 287 288 288 287 287 287 287 286 286 285 285 284 283 284 283 283 283 282 282 281 280 280
294 294 290 287 285 286 283 281 281 279 283 291 292 295 297 297 299 296 292 288 297 298 298 299 299 299 299 298 298 298 295 291 293 297 301 298 300 300 300 299 300 299 296 295 295 294 293 291 290 289 289 289 288 288 289 289 288 288 287 287 287 287 287 287 288 287 287 287 287 286 286 286 286 285 284 284 284 284 284 283 282 282 282 282 281 280
288 289 288 285 283 285 284 282 280 285 285 290 292 292 292 296 299 294 284 285 296 298 299 298 298 298 298 299 298 297 294 291 293 299 301 299 299 299 299 300 298 294 292 289 288 290 289 288 287 287 288 288 288 287 288 288 288 286 286 286 287 286 286 287 287 288 288 287 287 286 286 286 285 285 284 284 284 284 284 283 282 281 281 281 281 280
285 287 287 283 284 284 284 283 286 287 293 293 295 294 292 298 296 286 281 290 296 297 298 299 298 298 298 298 298 295 297 299 301 297 291 292 292 291 289 289 291 291 290 289 288 286 287 287 289 288 287 287 287 287 287 287 287 286 286 286 286 285 287 287 288 287 287 286 286 285 285 285 285 284 284 284 284 284 283 283 282 281 281 280 280 280
286 286 286 287 284 283 284 282 283 287 292 295 296 293 296 293 285 285 295 296 298 297 295 298 298 298 299 299 299 299 301 301 296 289 292 291 294 292 289 288 287 287 286 286 286 286 287 286 286 285 285 285 286 286 287 286 285 285 285 285 285 286 287 286 287 286 286 285 285 285 284 284 285 284 284 284 284 283 283 283 282 282 282 281 280 279
286 284 283 284 286 286 285 282 281 278 288 295 292 291 294 290 291 298 294 292 293 295 294 295 297 299 299 298 300 300 300 294 294 294 292 290 290 289 288 288 288 287 286 285 285 285 286 285 284 284 284 285 285 286 286 285 284 284 284 285 285 286 286 286 286 285 285 284 284 283 283 283 283 283 283 283 283 283 282 282 282 282 282 281 280 279
289 285 285 287 289 283 283 280 282 289 292 297 296 290 293 296 299 297 298 298 294 291 292 295 296 297 297 298 298 296 296 295 290 290 288 287 287 287 287 287 288 287 286 286 286 285 285 285 284 283 284 284 285 285 285 284 283 283 284 284 285 285 285 285 285 284 283 283 283 282 283 283 283 283 283 283 283 282 282 282 281 281 281 281 280 280
290 287 288 286 289 288 286 289 290 290 292 296 298 298 299 300 300 297 298 299 298 294 291 293 295 294 293 294 294 294 294 292 292 290 289 289 287 287 286 286 286 286 285 285 284 284 284 284 283 283 283 284 284 284 284 284 283 282 282 283 284 284 284 283 283 283 282 282 282 282 283 283 283 283 283 283 283 282 281 281 281 280 281 280 280 280
293 290 288 288 286 290 291 290 290 289 290 292 297 297 297 299 300 295 295 297 295 295 292 294 295 294 291 292 293 293 293 293 290 288 288 288 287 286 286 285 285 285 284 283 283 283 283 283 283 282 281 282 282 283 283 284 284 283 283 283 284 284 283 283 282 282 282 282 282 282 282 282 282 282 283 283 283 283 282 281 281 281 280 280 280 280
290 289 289 287 290 288 283 292 292 292 293 291 292 293 294 292 294 293 292 294 294 292 290 291 292 293 292 290 293 294 293 290 288 288 286 285 285 285 285 285 284 283 283 283 283 282 282 282 281 281 281 279 279 280 281 281 282 283 283 283 283 283 283 282 282 281 281 281 281 281 282 282 282 282 282 282 283 283 283 282 282 281 280 281 281 280
284 290 286 286 286 285 285 290 291 292 292 292 292 292 293 295 295 292 292 293 293 292 292 293 292 290 290 290 291 292 293 291 288 287 285 284 284 284 284 284 283 282 283 282 282 282 282 282 281 280 279 278 277 277 278 278 279 280 281 282 283 282 282 282 281 281 281 281 281 282 282 282 277 280 282 282 282 282 282 282 282 281 281 281 281 280
288 289 282 286 284 286 289 289 290 291 292 293 295 294 294 293 293 293 293 292 291 289 290 290 290 290 290 291 291 291 290 289 288 287 285 284 282 282 283 282 282 282 281 280 281 282 282 281 280 279 277 275 275 275 275 275 274 276 280 280 281 282 282 281 279 280 280 281 281 281 281 281 281 282 281 281 281 281 281 281 281 281 280 279 281 282
287 283 287 286 282 282 284 287 291 286 286 291 294 295 294 293 291 290 290 290 291 290 291 290 292 288 286 288 289 290 290 289 287 287 285 284 283 282 281 281 281 280 280 280 281 281 280 279 277 276 275 274 274 274 273 273 272 272 275 278 280 281 280 279 279 279 279 280 280 279 280 280 280 280 280 279 278 277 276 276 280 280 280 278 278 279
284 284 286 283 283 283 288 292 292 291 291 293 296 297 297 295 292 290 290 291 292 291 291 290 289 289 287 285 286 286 287 288 286 286 285 284 283 282 281 280 280 279 279 279 279 279 278 277 275 274 273 272 272 272 271 271 271 272 273 276 279 279 279 279 279 278 278 278 279 278 279 278 278 278 278 278 278 278 277 278 279 280 279 279 279 279
Wind_Speed
3 5 5 6 7 8 6 2 5 4 4 7 4 2 2 4 6 2 2 2 1 3 11 12 13 16 16 13 15 14 6 7 11 13 12 11 11 11 11 11 11 11 14 1 1 4 7 8 8 9 9 10 11 12 13 13 13 12 11 10 11 9 9 8 7 7 7 7 6 4 7 6 4 3 3 3 3 2 2 2 2 4 5 7 8 7
2 4 7 4 5 0 4 6 8 7 2 2 3 2 3 4 5 3 1 2 1 3 3 2 8 16 16 14 14 12 10 16 14 14 14 14 13 12 13 14 13 13 6 5 6 6 6 7 9 9 9 11 13 14 15 15 14 13 12 12 11 9 9 8 8 7 8 7 7 5 7 4 4 4 5 5 3 2 1 2 1 2 4 8 8 7
5 7 2 5 6 8 6 5 3 3 4 3 3 2 3 5 5 1 2 1 1 1 10 5 9 15 16 15 15 14 15 15 14 14 15 12 14 13 12 13 13 9 12 9 10 7 7 8 9 9 9 11 13 13 14 14 13 13 12 12 12 11 10 9 10 8 8 7 6 6 5 5 4 1 1 1 2 3 3 3 2 2 2 4 6 8
4 7 3 7 7 9 5 3 5 4 1 3 3 3 6 2 2 2 4 2 2 4 5 5 10 15 17 16 18 18 16 16 13 14 14 12 16 18 16 13 8 12 12 13 11 9 8 9 9 9 10 11 11 11 12 13 14 12 12 12 12 12 11 10 8 9 6 4 4 4 4 4 3 4 3 3 2 2 2 3 2 3 2 4 5 7
3 3 2 6 5 7 7 5 7 5 6 3 5 5 5 2 4 4 2 1 2 3 1 10 11 12 12 11 9 5 1 4 9 8 10 13 14 14 13 12 13 17 14 12 10 8 8 10 11 12 10 9 11 12 13 14 13 10 14 13 13 11 12 10 9 9 7 7 6 5 5 5 6 5 4 4 3 2 1 1 3 4 3 4 5 6
4 3 6 7 3 4 7 5 8 7 5 3 6 10 8 4 3 0 2 5 4 4 3 2 6 5 2 6 9 10 6 7 5 6 10 12 10 9 12 14 12 11 13 13 12 9 7 9 9 9 10 11 11 12 13 12 13 11 11 13 13 11 10 10 11 10 8 8 7 7 7 8 6 6 7 8 8 7 6 6 3 2 2 3 3 5
1 3 5 7 7 5 4 5 4 6 4 3 3 6 11 1 2 1 1 1 4 3 2 3 4 9 3 13 14 9 8 16 6 9 15 13 12 11 12 10 10 10 9 8 9 9 9 9 9 11 12 13 13 12 10 11 12 12 12 13 13 11 9 10 10 11 9 9 8 10 9 7 7 7 6 5 5 6 6 5 5 4 2 2 3 3
5 4 4 3 7 6 6 6 6 11 5 4 2 1 3 4 5 4 3 4 5 2 4 4 4 8 10 12 12 12 13 14 15 14 13 12 11 11 11 11 10 9 8 6 8 9 9 9 10 11 11 11 11 10 10 11 11 13 13 13 13 10 10 9 9 11 10 10 8 9 9 8 8 8 8 8 7 5 5 5 5 4 3 2 2 4
6 7 8 8 6 5 8 2 5 11 6 1 1 1 4 4 3 4 2 1 1 5 6 6 4 4 8 4 1 2 6 10 13 15 11 8 7 8 9 8 7 7 7 7 6 7 7 8 8 8 9 10 10 10 11 11 11 11 11 12 12 12 10 9 11 11 11 9 10 9 8 8 6 6 5 6 5 5 5 5 4 4 4 3 3 2
2 1 8 6 8 8 3 3 2 10 7 1 4 7 7 6 6 1 2 1 1 2 9 7 8 4 16 6 7 3 3 10 13 10 8 4 4 3 3 3 4 3 2 3 5 5 4 4 5 6 6 8 9 9 10 10 10 11 11 12 13 13 10 9 11 11 11 11 9 9 7 9 7 4 5 5 6 5 5 6 6 5 5 4 3 3
1 1 4 3 7 1 7 5 2 3 5 12 6 9 6 5 3 3 3 0 0 5 7 12 10 5 8 8 10 7 7 7 8 6 4 2 5 3 1 3 2 1 1 1 2 3 3 1 3 5 7 8 9 9 10 11 11 11 11 12 13 13 10 11 12 13 13 11 10 9 8 8 9 6 7 7 6 6 6 6 6 6 5 5 4 4
2 2 3 1 3 4 5 8 7 2 5 6 3 4 5 2 2 1 1 1 3 7 5 3 6 7 5 10 6 3 4 2 3 8 10 5 3 1 2 0 1 1 1 1 2 2 2 2 3 4 7 8 10 10 11 11 11 11 12 12 14 13 12 11 11 12 11 10 8 7 9 8 7 8 7 9 9 9 9 8 8 6 5 5 4 3
4 6 2 2 3 5 7 9 5 4 2 2 5 6 4 2 1 3 2 4 7 7 1 3 1 3 16 20 3 10 12 11 10 9 11 10 8 5 2 2 2 2 2 3 3 2 2 4 5 6 7 8 11 11 13 12 12 12 14 14 15 17 14 11 11 12 12 11 9 9 7 8 7 8 8 8 8 9 9 8 8 8 7 6 6 5
3 4 2 4 2 6 8 9 6 3 7 6 10 9 7 5 5 7 3 2 4 1 0 3 1 7 12 14 14 19 21 16 11 12 13 10 12 10 4 4 4 4 5 5 4 4 4 4 5 6 8 9 9 11 12 13 13 13 13 16 16 16 17 12 12 12 12 13 12 11 10 7 6 7 7 8 8 8 7 8 9 10 10 10 10 10
6 5 10 12 6 10 10 13 12 8 13 12 3 10 7 6 4 6 3 6 5 1 3 4 2 7 3 5 4 6 9 8 6 6 6 7 11 9 4 7 9 10 9 5 7 7 6 6 6 6 6 6 7 10 11 11 13 13 13 15 16 16 17 15 13 12 14 12 11 10 9 8 8 8 8 7 6 6 7 7 8 7 6 7 8 9
12 6 4 5 4 11 13 1 5 7 3 3 0 3 1 11 2 8 1 1 1 1 3 3 7 4 8 6 10 5 6 8 3 5 4 10 10 6 9 11 9 8 8 5 6 7 7 7 6 5 5 6 7 10 10 12 11 12 13 14 15 16 16 16 13 13 13 12 9 11 11 11 10 7 7 6 6 6 8 7 6 7 6 5 6 6
4 7 4 1 2 9 5 2 3 3 9 8 6 8 6 5 3 4 2 3 1 2 8 4 7 10 9 17 17 19 16 12 4 5 5 8 6 4 9 9 2 4 6 5 7 6 5 5 6 6 7 7 8 9 10 11 11 13 12 12 14 14 14 16 13 13 13 12 12 13 12 11 10 9 9 8 9 9 7 6 6 6 5 3 3 5
3 1 2 2 7 1 3 3 2 5 2 9 7 8 3 1 4 4 6 2 3 8 6 4 9 13 3 11 5 4 9 11 10 12 11 8 5 7 10 7 2 6 7 7 6 4 4 5 7 8 8 9 10 11 11 12 11 11 11 12 14 15 17 17 14 14 13 12 11 11 12 11 10 9 9 8 9 7 6 6 6 3 3 6 5 4
2 8 2 2 4 2 2 2 2 3 5 2 0 2 7 4 6 4 2 6 5 4 4 6 8 8 10 15 3 6 5 9 12 12 11 13 12 12 11 6 4 5 4 6 6 5 5 6 7 8 8 8 9 9 9 10 10 10 11 12 14 16 17 17 14 12 10 11 8 8 9 10 9 8 8 7 6 6 7 7 6 7 5 5 6 6
2 7 2 2 1 3 1 6 11 8 1 3 1 2 4 2 5 7 7 1 2 8 2 4 2 9 8 8 8 14 14 13 11 8 11 11 11 9 10 7 5 6 6 5 4 4 4 5 7 7 8 8 9 9 8 10 9 12 12 12 13 13 13 15 16 13 12 11 9 9 8 9 9 10 9 8 8 7 7 8 7 7 8 8 7 7
5 2 8 4 4 2 6 8 12 12 11 6 7 7 3 3 4 4 2 3 4 4 5 5 8 7 9 7 8 11 12 10 12 11 7 7 8 10 7 5 4 5 5 4 2 2 4 5 5 6 6 6 6 6 7 8 10 11 11 12 13 15 15 15 15 14 11 9 10 10 11 10 9 10 9 7 9 8 9 8 8 8 8 7 7 7
3 5 9 5 4 8 6 1 3 6 13 13 15 14 16 10 6 6 7 4 0 4 3 2 10 9 10 5 8 9 8 8 9 8 7 7 10 4 2 4 4 5 4 2 2 2 2 2 4 6 6 6 6 7 9 9 9 11 12 11 12 13 13 14 14 11 10 9 9 11 11 11 10 9 8 9 8 8 7 7 7 6 6 8 6 7
6 2 5 5 8 8 2 1 1 4 5 3 4 8 8 10 9 7 11 4 1 4 3 1 4 14 3 7 4 7 5 5 3 6 8 9 6 3 1 3 6 6 4 3 3 2 2 3 4 6 8 8 9 8 9 9 10 10 11 11 11 13 14 13 13 11 11 11 9 11 11 11 10 8 8 9 9 9 8 6 7 7 9 8 8 7
5 2 2 8 2 1 0 1 2 1 1 4 7 1 1 9 9 7 3 1 5 3 4 4 6 12 9 1 4 3 3 3 3 5 8 7 7 7 5 2 5 6 7 5 3 3 3 3 4 4 6 7 8 9 10 10 10 10 11 12 11 13 14 13 12 11 13 13 11 11 11 11 10 11 10 9 8 10 10 8 8 9 9 8 6 8
5 2 6 4 4 2 2 1 3 2 2 4 5 5 7 5 5 1 3 0 3 7 8 6 12 14 0 2 1 3 5 5 8 6 5 8 7 7 6 4 3 6 4 4 5 5 3 4 7 7 5 6 7 7 9 9 10 11 11 11 12 11 12 12 11 11 12 12 12 11 10 11 10 11 10 9 7 8 8 8 9 8 7 7 8 7
3 4 7 7 10 10 9 9 10 7 8 5 4 8 11 13 10 5 7 6 10 7 13 11 13 17 12 4 3 4 5 6 7 7 5 8 10 6 5 5 5 6 4 3 4 3 6 7 7 5 5 5 7 7 8 9 10 10 10 11 11 11 12 12 11 11 11 11 13 11 12 11 11 12 12 11 10 9 8 7 9 9 7 8 8 8
2 1 6 11 12 13 12 4 5 8 4 7 9 12 11 13 14 10 4 6 12 15 13 12 16 20 23 12 6 8 5 8 9 7 7 8 8 8 6 5 4 4 4 5 5 4 4 8 11 7 7 6 6 7 7 9 10 10 10 11 12 11 11 11 9 10 11 11 13 12 12 11 11 10 10 11 11 8 7 9 9 10 10 9 9 10
2 3 10 12 13 15 12 9 3 6 9 11 13 12 13 13 12 14 13 16 15 9 17 15 18 17 24 24 17 11 5 7 7 6 6 6 7 6 3 2 5 6 6 3 5 7 10 10 8 6 7 7 8 7 8 8 8 10 10 11 11 11 11 8 10 11 12 12 13 11 12 11 10 9 10 10 9 7 7 7 8 9 8 8 9 9
6 8 11 8 12 16 18 15 4 6 6 7 12 12 13 14 13 15 19 21 19 15 18 14 12 19 21 25 19 18 10 10 7 8 7 4 5 5 4 5 7 8 8 8 11 10 10 10 8 8 7 7 7 9 9 8 8 9 9 9 10 10 12 10 11 12 12 12 13 12 10 10 9 7 8 8 7 7 8 9 8 7 8 8 8 7
2 4 8 10 14 15 15 17 12 11 10 8 8 11 10 13 18 20 21 23 23 19 16 17 19 24 23 24 21 12 7 9 10 7 4 2 6 7 7 8 9 8 9 10 9 9 10 11 8 8 6 7 10 10 10 9 9 10 11 11 11 11 11 11 12 12 12 12 12 10 10 10 8 9 8 8 9 9 9 8 7 7 7 8 7 7
6 8 12 7 7 14 20 19 18 16 14 19 15 8 8 12 16 20 21 19 15 18 19 22 24 24 22 23 16 11 7 3 6 9 9 8 9 10 10 11 11 11 9 8 8 9 9 8 8 7 7 9 11 11 10 9 8 8 9 9 10 11 11 11 11 12 12 12 11 10 10 9 10 9 10 9 8 7 8 7 7 6 5 6 7 7
9 4 4 6 9 11 16 17 19 15 11 12 14 15 15 20 22 20 16 12 15 19 22 19 19 20 24 16 9 15 4 8 12 11 11 11 12 12 13 13 12 12 12 12 12 11 10 10 9 8 8 9 10 9 8 8 8 8 10 10 10 10 10 11 11 12 11 11 10 10 10 10 10 10 9 8 8 8 6 8 8 7 9 9 8 7
8 5 6 6 11 12 14 10 14 10 6 9 14 23 26 23 16 11 13 19 23 19 15 14 18 19 20 15 9 14 9 9 12 11 11 16 19 18 16 16 14 14 13 15 16 14 12 12 10 7 7 7 7 7 8 8 8 10 10 9 9 9 10 12 11 11 11 10 10 10 10 10 10 10 8 6 6 6 9 10 10 10 9 10 10 8
6 8 7 5 6 4 13 7 4 6 15 13 15 24 20 20 19 19 20 23 20 14 15 17 17 18 20 20 19 19 13 11 12 14 16 15 16 18 18 16 17 17 17 16 15 14 11 6 6 6 8 7 6 5 6 8 9 7 7 8 8 10 10 11 11 10 10 10 10 10 10 9 8 7 7 6 6 6 6 7 9 7 7 7 6 6
8 9 9 5 5 8 9 5 5 16 15 12 16 13 15 18 20 24 24 23 20 16 16 20 23 26 28 21 16 19 17 14 15 16 18 17 19 17 17 15 17 17 18 20 15 10 9 9 9 7 6 7 5 4 5 6 6 6 7 8 9 10 10 10 10 10 10 10 10 9 7 9 9 8 7 7 6 6 7 7 6 7 6 6 8 9
10 11 7 9 6 7 9 9 14 7 3 6 11 13 11 15 18 15 17 19 21 21 20 21 27 29 26 24 21 17 19 19 15 17 19 17 14 11 13 14 18 19 18 13 11 10 11 12 11 8 6 2 3 4 5 6 6 7 7 8 9 9 9 9 9 9 9 9 8 9 9 8 7 8 7 8 7 7 7 7 8 8 6 5 5 4
15 11 9 11 9 11 8 13 19 8 14 9 9 11 10 11 11 13 12 16 20 20 21 22 26 25 25 21 22 19 17 12 16 21 19 12 14 14 17 16 14 14 10 10 10 12 7 3 3 2 2 3 3 5 6 6 7 8 8 8 7 8 9 9 9 9 7 9 9 9 10 10 9 7 8 7 7 8 7 8 9 7 6 7 6 6
15 14 9 12 9 11 13 16 12 12 14 12 20 21 8 9 11 9 13 14 13 15 19 21 25 27 24 20 16 19 8 4 16 20 15 12 17 20 16 14 12 11 12 10 4 2 2 2 2 2 3 4 4 5 6 7 8 8 8 8 8 9 9 9 9 9 9 9 7 9 9 9 7 7 7 8 9 8 7 5 4 6 8 8 8 8
15 15 13 15 9 11 11 12 9 13 11 8 16 15 8 8 10 5 6 14 13 21 15 17 22 22 18 16 19 11 5 8 18 18 8 14 11 11 12 15 15 11 5 4 4 4 4 3 3 4 4 6 6 6 7 8 9 8 8 8 9 9 9 10 9 9 8 9 9 7 9 6 8 9 9 8 7 8 8 8 8 6 6 6 5 6
15 12 8 13 14 15 13 12 13 7 9 7 7 4 4 8 10 7 12 8 16 21 11 16 18 16 17 18 17 12 10 13 13 19 4 10 8 10 11 12 10 7 4 2 1 1 2 4 5 5 6 6 6 7 8 9 8 7 8 9 9 9 9 9 9 9 8 8 8 7 5 6 9 8 9 9 8 7 7 6 7 7 7 7 5 6
11 11 12 19 12 15 19 14 9 8 5 4 10 4 4 10 15 12 16 10 7 5 11 12 15 17 16 16 14 11 16 18 20 3 5 5 5 2 0 2 2 1 3 3 3 4 4 4 4 5 5 5 7 7 8 7 6 7 7 8 8 8 8 7 7 8 8 8 8 6 6 6 7 9 7 7 7 7 6 7 7 7 7 7 5 6
9 7 7 14 14 12 12 17 13 10 5 10 10 8 11 8 11 15 10 1 5 6 5 12 14 14 14 16 13 12 17 15 7 4 4 4 4 4 3 3 3 3 3 3 4 5 5 5 5 6 5 5 5 5 5 4 6 6 7 6 5 5 6 7 7 8 7 6 6 6 6 7 5 6 6 7 8 8 7 5 6 7 7 6 6 8
7 8 8 13 8 12 8 10 10 14 4 14 5 4 6 9 10 10 3 4 4 5 7 8 10 12 14 14 16 15 12 4 6 6 6 5 5 6 6 6 6 7 7 7 6 4 7 7 7 7 7 6 6 6 4 6 7 5 5 4 5 5 6 7 7 8 6 6 6 7 7 7 7 6 5 6 7 9 7 7 7 6 5 6 6 7
2 11 6 9 9 10 11 13 8 8 7 7 14 13 11 19 8 4 5 6 6 6 6 6 9 9 5 6 8 6 4 5 4 3 1 2 1 2 3 3 3 4 4 3 5 7 5 8 7 8 7 6 6 5 5 7 8 6 6 6 6 6 5 6 6 6 7 6 6 6 6 6 6 6 6 7 7 7 8 7 7 7 6 6 6 6
9 10 2 9 4 10 7 8 1 5 1 8 14 10 7 14 9 8 6 7 6 6 5 3 7 5 5 5 5 5 6 7 6 3 6 4 5 5 6 7 7 7 6 6 6 5 3 7 9 8 7 6 5 4 4 4 9 7 7 6 6 7 7 6 8 8 7 7 7 7 6 6 6 6 6 7 8 8 7 8 8 7 6 6 6 6
4 1 1 2 6 6 10 12 9 7 6 7 10 8 6 8 10 5 8 9 6 2 5 5 5 4 2 3 5 5 6 4 4 4 5 3 5 4 3 4 5 5 6 6 6 6 5 7 7 8 9 6 4 4 3 3 7 10 6 6 6 7 7 8 9 8 7 7 6 6 7 7 6 6 6 7 6 7 7 9 7 6 7 6 6 6
4 6 3 3 4 5 5 3 6 9 10 11 10 11 10 8 6 4 5 6 4 2 4 5 4 5 6 8 8 6 3 3 6 6 3 3 5 7 7 6 6 6 7 7 7 8 8 8 8 8 8 8 3 4 4 5 2 6 6 7 6 7 8 9 8 8 7 7 7 7 6 8 7 7 6 6 6 5 5 6 6 6 6 6 5 5
4 1 11 5 6 6 6 13 16 16 12 9 7 8 12 9 7 6 5 7 6 4 4 6 3 5 4 4 7 1 12 7 8 9 8 5 5 5 7 7 7 7 5 6 8 6 7 6 7 9 8 6 4 3 4 5 6 6 6 5 6 7 9 8 7 7 7 7 7 7 6 6 8 8 6 5 5 5 5 4 4 5 6 6 6 6
8 8 7 4 9 9 11 14 17 17 13 13 13 10 9 8 7 8 6 8 10 11 12 10 7 8 6 11 6 8 9 10 12 11 10 6 4 5 6 6 6 7 8 9 8 7 7 9 8 7 8 6 4 4 5 6 5 4 6 6 6 8 9 8 9 9 8 7 6 6 6 6 6 6 6 6 4 3 2 4 4 4 3 2 1 2
3 9 8 10 10 11 8 11 11 10 10 11 9 7 7 8 6 9 12 13 13 12 12 12 13 5 4 6 7 8 11 10 9 9 10 8 6 6 7 7 6 7 7 5 7 8 9 8 9 9 8 5 4 4 5 6 5 4 4 4 6 7 9 9 8 8 6 5 6 5 5 5 5 4 5 6 5 5 5 8 8 4 2 2 3 6
11 10 8 8 9 10 12 12 9 8 11 13 14 12 11 10 7 9 11 14 14 12 11 10 12 12 10 9 5 7 9 7 9 9 9 10 7 5 5 7 9 9 10 11 11 10 11 10 8 8 9 6 5 6 7 8 5 5 3 4 4 7 9 9 6 5 5 5 5 6 5 5 5 4 4 5 5 6 7 7 7 11 9 7 7 6
Wind_Direction
321 186 201 209 215 196 189 170 73 90 80 89 87 148 232 261 268 134 255 44 250 281 255 258 265 271 272 267 269 269 245 234 253 259 257 253 253 253 253 250 247 245 248 134 140 207 197 188 185 187 188 194 193 195 194 194 196 194 189 183 185 176 172 173 170 175 169 170 163 174 186 182 168 162 145 159 158 158 179 238 183 169 157 148 147 145
247 224 228 225 56 89 120 115 113 95 38 137 144 233 226 192 273 96 95 48 126 250 286 120 289 278 276 272 266 264 255 260 247 248 249 251 249 250 249 252 248 250 260 253 231 188 184 190 184 184 191 190 192 199 195 196 193 190 189 188 183 170 177 182 180 176 183 184 181 171 188 151 158 157 170 175 179 158 156 212 178 165 160 156 152 152
200 213 202 92 109 92 97 134 145 177 151 108 253 179 288 250 272 180 7 117 162 191 273 317 292 282 283 280 272 259 255 258 253 246 254 261 262 257 252 247 253 256 259 252 243 197 191 185 188 191 196 200 205 197 197 195 189 187 188 191 188 183 178 186 182 177 184 182 176 184 159 162 146 109 97 115 117 141 167 186 175 158 178 160 150 155
213 240 150 128 134 115 88 122 143 119 152 195 169 206 242 51 326 274 124 34 148 242 311 334 305 285 282 271 263 258 242 251 256 253 257 252 257 257 257 260 263 258 254 249 240 214 186 189 192 196 199 201 199 197 193 193 192 189 191 190 185 180 181 185 180 180 169 127 100 69 107 102 121 149 117 109 99 82 130 182 182 169 178 169 168 165
199 55 43 136 155 158 139 157 165 180 209 211 224 229 257 207 212 259 32 293 162 239 309 290 278 269 257 269 275 259 160 283 264 265 257 252 247 256 268 271 255 257 256 260 257 214 184 191 202 200 199 191 195 198 195 192 191 191 191 188 184 178 180 181 174 170 133 127 116 105 97 107 97 96 141 147 159 163 164 164 182 183 172 176 179 173
246 114 137 124 114 99 126 161 196 183 230 194 225 226 239 246 254 134 329 327 266 243 124 301 305 259 165 250 262 277 289 262 208 226 249 248 242 235 248 249 254 241 240 248 255 252 208 203 202 198 194 196 201 202 200 194 194 188 186 185 182 177 176 176 181 167 157 161 155 152 158 169 174 171 180 189 180 171 178 192 150 107 144 185 195 185
237 118 175 150 155 152 176 189 179 202 213 213 228 209 236 227 69 90 255 286 266 276 79 271 265 281 311 282 267 261 265 272 233 234 257 254 253 244 242 244 242 243 241 229 243 245 236 215 202 199 197 199 202 204 192 194 193 190 188 186 183 178 175 178 176 168 167 167 173 179 180 172 179 175 188 185 171 169 168 157 152 151 149 169 195 221
132 157 129 126 138 163 168 205 191 193 178 216 54 141 152 178 212 221 212 233 279 336 220 187 234 273 284 264 261 259 264 276 288 268 246 245 243 241 246 248 246 248 243 240 238 236 231 224 208 209 201 200 204 192 187 190 190 192 190 185 182 179 181 176 168 175 183 178 178 186 184 177 183 188 176 178 171 156 136 147 152 143 142 144 193 198
178 161 181 163 177 176 203 176 134 185 197 35 77 228 144 169 172 149 204 214 334 353 282 151 176 268 255 193 98 128 258 265 264 267 270 259 246 240 249 249 252 253 250 242 243 240 224 223 216 209 197 198 194 189 190 190 190 191 192 190 186 187 180 171 170 177 188 188 181 185 189 183 189 184 165 158 132 135 146 144 136 148 145 161 163 185
328 243 202 178 166 203 118 18 218 176 195 157 131 94 89 86 71 100 126 170 242 285 267 146 188 253 284 211 190 137 259 272 264 267 271 283 285 254 242 251 253 262 260 256 260 260 249 233 219 205 197 185 189 188 189 186 187 190 190 191 187 188 177 172 177 182 186 192 181 191 193 180 171 148 123 147 150 147 154 158 162 158 165 167 162 164
11 251 332 194 216 106 113 55 24 2 48 128 174 106 86 69 82 75 56 16 295 248 257 145 186 251 294 274 166 173 199 213 253 274 261 224 280 259 266 273 274 275 252 245 245 246 248 246 218 183 193 191 186 187 188 186 188 188 189 190 191 189 177 175 184 187 191 194 193 196 196 196 182 156 152 156 161 158 161 167 168 167 174 168 162 158
153 77 178 243 48 111 112 90 44 52 140 155 152 134 130 114 122 131 99 144 224 258 95 112 182 224 217 286 134 88 25 314 277 276 282 266 221 256 99 235 233 219 264 283 262 249 210 205 192 189 194 189 186 186 189 187 187 190 192 192 192 191 183 177 185 189 188 193 197 204 203 195 174 168 171 177 174 172 174 175 171 172 163 168 153 156
234 209 117 96 264 147 148 100 72 94 249 239 143 157 190 201 129 217 165 215 197 239 41 353 147 259 233 247 348 302 280 264 239 250 264 273 281 248 184 213 206 245 257 261 269 249 220 216 194 195 196 188 189 192 190 190 192 200 203 198 194 204 198 180 183 190 189 188 193 201 206 199 183 174 179 181 177 173 175 176 169 165 176 165 166 178
237 81 176 153 122 245 189 157 136 160 204 200 182 179 187 211 210 250 196 357 320 265 283 29 272 253 279 297 269 263 267 268 256 232 238 252 264 268 227 218 227 220 223 235 244 242 231 209 208 204 196 193 191 189 188 188 192 199 204 205 200 204 205 192 184 190 195 196 198 200 204 191 173 181 184 190 186 183 182 178 178 178 179 176 182 173
235 229 210 148 222 158 209 210 176 166 172 200 204 182 205 184 189 217 175 223 237 5 72 298 158 243 221 196 33 268 285 298 294 293 291 268 262 271 272 254 250 254 255 235 246 241 231 217 209 204 200 195 192 188 188 189 194 198 202 202 200 201 205 199 187 191 199 198 194 193 195 179 180 182 184 193 185 181 187 188 183 183 180 182 178 174
222 263 47 174 5 150 193 228 84 94 110 163 305 13 298 228 76 252 8 267 93 145 181 207 229 252 228 5 308 267 267 284 251 270 259 268 265 271 275 255 229 237 253 223 235 238 226 219 207 202 197 193 193 192 193 194 195 201 203 199 199 204 204 205 185 193 198 197 190 195 194 192 183 181 181 182 180 191 199 186 185 188 188 191 173 153
67 240 74 348 76 191 183 70 182 162 206 173 146 212 210 5 146 85 96 76 73 324 257 176 264 259 277 280 247 247 255 255 244 260 253 260 257 254 259 258 162 229 244 235 233 228 209 192 203 204 196 193 192 193 196 196 196 200 195 196 199 203 207 207 192 194 202 201 196 198 198 196 188 188 186 186 186 188 186 177 185 194 185 141 146 153
214 190 25 135 200 250 48 299 49 24 356 107 213 205 76 21 4 188 235 131 202 239 256 139 230 262 265 279 53 301 258 262 270 265 259 258 256 255 248 255 194 222 222 234 239 228 204 196 198 197 200 197 194 193 194 197 196 199 198 195 199 202 208 210 197 194 199 201 195 194 196 195 191 189 190 190 187 181 176 175 184 161 146 185 166 150
143 255 134 339 3 55 18 208 192 65 358 310 271 77 181 196 211 181 227 229 218 216 252 226 236 256 239 256 252 254 204 243 247 248 253 258 253 242 257 246 202 213 229 243 229 214 202 200 198 196 197 196 196 195 195 194 193 194 199 200 200 204 207 208 205 195 198 201 194 196 195 193 189 188 188 186 168 167 176 178 184 181 168 141 154 158
196 233 211 9 167 33 194 185 206 178 78 58 60 169 9 319 237 174 203 298 227 248 171 255 188 259 201 227 231 246 249 235 239 236 240 244 250 263 260 252 226 211 221 221 199 200 200 200 196 192 188 188 192 193 195 194 193 197 199 200 203 205 207 208 208 199 199 197 193 195 185 193 193 191 189 182 165 174 183 190 178 170 168 177 164 167
204 132 253 87 306 192 181 202 217 165 171 182 199 199 176 214 359 333 344 205 221 239 231 273 279 260 254 177 185 223 233 227 223 230 236 240 247 248 264 278 253 244 223 216 217 213 203 195 185 184 181 179 181 189 195 200 202 202 202 205 202 203 202 203 204 201 193 183 191 190 191 190 188 193 188 176 185 183 183 182 178 180 179 150 170 159
200 159 230 126 174 211 220 143 257 200 188 182 186 196 195 169 182 199 235 94 251 232 225 173 252 272 263 131 198 221 227 226 221 226 234 245 248 292 325 270 259 250 235 236 264 251 260 219 190 177 170 170 177 192 198 202 204 205 206 204 203 205 207 203 202 190 183 185 190 190 194 194 192 186 180 187 183 187 182 176 179 165 145 172 170 164
191 136 215 195 206 208 116 44 342 322 321 296 250 228 205 207 195 189 228 176 52 241 34 277 313 260 233 172 176 220 230 227 254 217 230 250 275 299 190 246 239 249 273 265 258 263 262 259 237 190 176 177 185 189 194 200 204 207 207 205 206 205 207 203 202 190 189 191 190 192 190 189 188 174 178 179 182 186 180 174 166 161 171 176 172 173
85 198 209 252 67 338 57 74 80 28 25 257 248 137 146 218 209 229 268 120 203 143 221 215 231 268 258 77 244 324 328 330 290 250 247 249 257 270 264 191 247 233 226 233 251 260 247 242 246 211 175 179 187 191 196 199 203 205 206 206 206 208 205 203 199 190 189 196 195 193 188 190 183 181 183 182 180 185 185 178 177 171 177 169 156 168
171 222 219 228 244 199 206 150 224 94 202 235 237 173 221 231 202 107 75 207 253 197 223 204 240 248 142 201 86 255 261 255 252 231 219 264 249 231 245 235 217 260 244 227 237 233 226 236 233 218 184 188 194 194 195 197 200 203 206 203 206 207 204 204 199 192 188 191 191 191 190 188 182 185 184 183 173 181 175 178 175 171 163 146 160 165
147 173 167 212 221 228 218 208 218 188 197 198 224 218 201 202 179 134 227 200 240 202 215 224 248 260 253 118 217 205 235 260 262 249 222 233 268 258 220 225 216 212 227 251 254 252 240 232 232 219 194 202 206 199 194 199 201 205 207 208 204 202 200 203 197 191 186 187 191 192 192 187 186 189 184 183 182 180 171 168 174 173 162 157 161 162
178 277 208 203 215 231 240 253 20 104 123 187 218 196 197 204 197 201 222 216 219 235 236 226 236 255 263 241 200 219 199 233 245 228 222 236 244 253 241 247 269 274 225 231 234 241 265 252 235 209 197 203 212 206 200 198 199 201 204 206 205 203 201 199 189 186 188 190 194 195 190 186 189 184 181 184 185 172 165 173 175 174 174 167 163 167
91 214 227 238 244 253 266 291 139 172 178 205 211 206 199 192 195 200 208 225 219 232 250 236 227 244 260 264 252 236 199 240 248 272 272 264 258 259 264 251 256 258 259 262 270 253 237 237 231 211 200 203 214 212 213 205 200 198 199 203 203 200 200 191 187 192 194 192 198 197 185 188 185 182 184 184 180 158 157 162 167 172 165 162 167 168
157 217 228 226 251 258 265 271 144 231 238 220 216 205 197 194 188 203 221 231 223 221 238 250 245 244 253 261 258 251 233 226 217 240 249 276 307 279 250 230 229 239 237 224 228 230 235 233 228 212 194 199 205 214 213 207 204 203 203 201 199 196 202 192 188 195 195 196 198 199 188 181 173 169 169 174 165 163 170 171 164 160 163 173 176 182
103 237 242 211 239 251 258 261 250 230 245 252 234 233 210 186 197 204 219 223 225 233 244 258 263 254 254 260 259 260 254 228 234 215 209 289 278 296 287 267 247 233 220 219 221 216 223 232 227 216 197 196 209 211 207 204 202 202 201 199 196 197 198 186 192 195 195 198 198 193 186 181 169 175 165 165 172 178 175 169 159 152 156 173 175 167
160 227 207 216 233 248 249 249 251 240 245 256 253 237 225 222 216 211 221 231 233 244 245 244 248 260 257 252 269 268 253 214 233 221 225 226 226 226 231 236 241 249 250 236 237 241 232 230 233 223 204 210 210 205 199 201 201 197 203 202 194 193 189 184 191 199 196 197 195 188 179 176 177 172 173 174 170 160 150 156 162 167 165 170 168 165
179 244 146 178 226 242 245 241 245 246 237 246 255 247 234 232 233 231 232 228 227 231 234 242 251 256 261 260 237 266 205 210 223 219 222 231 234 238 245 246 243 245 246 245 235 226 228 222 221 213 213 218 215 201 194 193 192 190 204 201 197 186 176 184 194 198 198 193 186 183 177 179 171 171 171 161 162 155 150 160 166 171 178 176 168 169
184 186 200 180 216 236 244 222 238 246 227 232 236 239 232 231 232 238 231 229 232 233 243 239 236 241 256 268 264 252 226 230 230 222 221 232 237 236 233 236 237 239 242 246 246 244 227 217 212 213 223 229 216 200 198 174 179 202 200 192 188 170 175 186 193 194 194 189 182 182 176 174 167 171 169 166 160 160 166 173 175 178 178 183 184 177
172 198 218 173 241 239 247 240 210 228 231 223 222 230 225 226 223 224 231 230 228 205 228 238 254 260 258 256 253 262 248 228 230 230 228 231 237 237 238 239 241 243 248 249 244 241 245 228 222 219 224 231 226 203 175 181 196 198 181 173 169 176 180 183 190 189 188 180 177 179 172 167 166 165 165 160 163 161 165 168 180 174 176 172 163 161
194 201 227 205 233 238 255 246 225 229 235 226 238 240 234 231 229 226 230 234 236 222 221 240 247 249 253 259 262 260 264 266 258 247 243 234 239 242 243 238 241 242 233 237 241 238 226 231 229 220 217 223 210 183 171 182 185 165 166 172 173 178 173 181 182 185 183 178 180 172 167 161 164 166 158 160 157 153 166 171 160 158 161 164 169 174
209 207 209 225 223 256 253 232 243 197 214 249 253 244 235 229 228 236 248 247 239 232 226 231 238 243 249 253 253 255 267 273 277 260 247 239 230 240 245 232 232 236 243 237 231 222 215 220 217 216 223 157 166 170 174 175 165 165 172 166 171 168 171 172 175 182 177 173 171 166 164 159 162 167 162 161 154 155 159 164 171 167 153 142 135 109
225 224 220 242 207 236 216 229 241 299 289 262 266 234 184 197 199 198 228 239 235 230 226 231 242 245 245 247 254 263 264 276 274 269 246 200 224 222 227 235 239 248 248 246 216 221 220 200 203 201 137 139 166 162 170 157 157 159 152 161 166 159 166 169 176 178 171 175 171 170 169 166 161 156 157 153 152 161 159 161 163 152 140 151 145 144
224 227 197 226 219 218 236 248 249 241 240 237 239 251 225 207 223 205 221 251 257 239 223 224 236 244 247 253 255 252 258 292 269 265 257 189 209 221 229 242 248 242 236 231 218 208 158 162 135 135 171 148 152 156 148 151 156 147 149 154 153 157 163 169 177 175 171 174 167 167 162 162 151 145 152 157 166 158 160 149 119 148 159 156 158 162
215 218 223 222 224 225 222 229 227 235 237 228 252 251 221 182 195 146 211 244 241 251 228 226 236 242 247 246 245 239 205 237 254 261 240 185 195 192 205 221 221 220 219 205 214 212 183 170 151 142 139 147 147 154 150 148 143 142 148 153 156 161 163 173 176 170 168 169 162 158 157 149 154 160 159 162 160 160 152 156 158 145 143 147 141 149
208 218 217 232 232 229 234 234 235 221 243 215 243 256 198 156 130 126 231 229 233 249 224 213 226 234 234 236 238 225 199 229 248 261 244 165 173 196 207 221 214 197 198 177 209 246 123 128 130 140 153 157 152 146 148 146 150 149 150 155 155 160 169 173 172 166 162 153 155 151 145 148 158 158 160 163 156 151 149 138 133 146 153 154 149 143
209 220 214 224 213 226 231 248 259 249 226 232 253 169 157 168 149 197 225 231 225 136 198 196 210 215 226 233 224 227 223 221 237 263 82 97 123 168 112 32 21 62 160 169 150 142 137 148 153 147 145 134 138 147 149 147 140 149 147 148 155 169 169 159 147 147 148 145 143 144 145 147 156 158 157 154 149 146 136 148 144 145 152 154 144 143
220 209 217 216 218 217 218 233 239 261 218 191 235 159 161 140 217 217 228 197 147 227 181 201 208 213 220 227 225 218 231 234 237 126 146 168 169 146 124 129 110 99 67 84 128 138 126 117 98 94 90 102 127 130 142 133 135 136 141 151 158 151 133 130 137 138 133 137 137 135 132 145 137 140 136 141 137 134 144 136 135 147 146 145 141 150
186 214 198 208 216 229 227 235 235 236 153 202 152 55 235 208 226 228 181 241 165 211 218 229 216 220 217 231 234 233 239 204 215 207 181 173 168 168 167 166 171 159 156 148 151 153 136 131 128 124 128 128 131 137 133 133 126 126 133 133 123 119 129 132 132 131 130 124 121 133 136 134 135 127 126 133 139 142 131 136 138 132 128 134 136 148
143 244 204 218 198 229 214 222 223 233 221 182 157 220 176 215 223 170 163 230 194 188 196 239 238 243 287 280 284 332 333 314 308 244 105 214 149 130 132 153 141 134 136 145 145 155 141 128 129 128 132 137 138 137 135 139 131 136 136 127 129 127 118 119 118 111 109 113 114 121 126 130 126 127 133 131 130 127 125 135 135 137 149 143 147 149
165 219 249 258 205 228 237 244 270 341 254 206 209 238 214 218 232 222 230 253 242 220 176 205 263 280 218 210 259 292 290 235 243 194 205 199 187 175 173 173 169 164 158 152 149 137 140 136 137 129 121 123 121 121 127 131 129 132 133 132 129 130 126 117 121 120 121 123 129 132 132 129 134 133 129 132 135 135 137 129 136 144 147 147 153 152
320 61 352 332 263 271 272 264 283 277 270 277 251 261 267 241 247 277 247 252 247 226 182 200 202 200 188 202 205 230 224 303 282 253 243 185 168 176 139 141 138 142 133 127 128 146 132 119 112 119 116 105 90 108 108 128 140 137 138 134 135 130 124 128 129 125 122 127 130 126 128 119 119 125 126 139 144 140 146 148 153 149 151 155 159 161
305 0 22 272 338 325 275 318 288 307 336 330 311 306 304 284 300 349 298 260 287 195 219 267 244 214 184 176 208 224 212 183 225 229 247 238 186 168 169 164 163 159 156 148 143 134 136 133 125 118 119 106 87 83 69 82 67 113 126 130 129 125 129 132 127 120 127 128 127 127 129 134 141 139 138 137 140 138 137 143 148 141 148 158 158 162
281 34 339 290 290 275 293 312 306 294 280 270 260 287 287 304 329 303 290 309 298 286 265 272 254 254 183 231 210 247 278 236 201 213 195 215 200 169 166 165 155 152 141 133 138 141 126 124 121 127 117 111 97 87 84 80 70 84 107 113 123 128 128 126 129 131 132 132 134 141 142 136 132 132 141 141 134 137 136 141 147 149 158 170 169 167
289 335 260 282 287 285 281 276 275 280 278 264 258 229 217 224 264 299 296 283 284 281 272 263 213 251 241 254 233 210 231 223 211 200 182 166 175 178 176 162 161 151 146 146 154 153 145 137 131 116 112 110 110 102 97 82 65 62 93 108 127 133 128 123 123 122 119 131 130 132 137 135 143 143 136 133 117 91 101 142 158 153 123 53 129 159
208 240 254 270 276 276 264 282 303 310 304 290 275 261 241 222 209 250 263 263 258 256 260 264 274 258 257 260 255 217 223 225 196 183 188 182 179 164 151 153 155 147 144 120 124 132 126 131 126 133 126 117 116 109 100 91 69 42 68 102 127 127 127 128 116 117 127 131 132 130 132 136 138 129 130 128 126 112 79 52 59 50 110 141 97 78
234 242 257 248 251 267 276 268 266 258 269 269 276 278 275 276 245 239 247 254 260 249 251 257 260 263 250 236 198 224 235 221 195 177 163 154 162 158 159 158 156 157 152 150 136 133 125 120 122 123 124 121 121 103 100 90 68 73 76 95 131 133 134 138 128 125 126 136 143 151 138 131 133 137 130 127 127 124 116 111 89 75 78 94 120 121